SWA3631 KMDW-KSAV

Flight info

Callsign SWA3631
Flight time 1h 38m
Altitude 35000
Route EARND ELANR EMMLY ERECO IIU IRQ GURGE
Aircraft B738/M-SADE2E3GIJ4RWZ/LB1D1

Departure

Time 2026-04-26 21:12
Airport Chicago Midway International Airport (KMDW)

Arrival

Time 2026-04-26 22:51
Airport Savannah Hilton Head International Airport (KSAV)
Time Latitude Longitude Altitude Speed Heading
2026-04-26 20:51 41.78870 -87.74404 628 ft 0 kts 142°
2026-04-26 21:03 41.78887 -87.74422 633 ft 4 kts 144°
2026-04-26 21:03 41.78906 -87.74434 633 ft 4 kts 211°
2026-04-26 21:03 41.78910 -87.74431 632 ft 0 kts 222°
2026-04-26 21:07 41.78895 -87.74463 628 ft 11 kts 245°
2026-04-26 21:07 41.78856 -87.74573 631 ft 15 kts 242°
2026-04-26 21:07 41.78777 -87.74683 628 ft 18 kts 223°
2026-04-26 21:08 41.78668 -87.74788 628 ft 21 kts 203°
2026-04-26 21:08 41.78553 -87.74925 631 ft 24 kts 224°
2026-04-26 21:08 41.78425 -87.75086 629 ft 26 kts 223°
2026-04-26 21:08 41.78284 -87.75263 631 ft 29 kts 223°
2026-04-26 21:09 41.78141 -87.75447 634 ft 28 kts 223°
2026-04-26 21:09 41.78001 -87.75625 631 ft 28 kts 223°
2026-04-26 21:09 41.77914 -87.75833 635 ft 26 kts 274°
2026-04-26 21:09 41.77988 -87.75842 627 ft 13 kts 43°
2026-04-26 21:10 41.78046 -87.75768 630 ft 0 kts 43°
2026-04-26 21:12 41.78129 -87.75663 637 ft 50 kts 43°
2026-04-26 21:12 41.78580 -87.75090 629 ft 126 kts 43°
2026-04-26 21:12 41.79339 -87.74134 946 ft 163 kts 44°
2026-04-26 21:12 41.80186 -87.73072 1816 ft 172 kts 50°
2026-04-26 21:13 41.80683 -87.71654 2481 ft 177 kts 87°
2026-04-26 21:13 41.80362 -87.70007 2823 ft 194 kts 121°
2026-04-26 21:13 41.79565 -87.68444 3052 ft 215 kts 125°
2026-04-26 21:13 41.78647 -87.66757 3072 ft 228 kts 126°
2026-04-26 21:14 41.77678 -87.65059 3107 ft 230 kts 132°
2026-04-26 21:14 41.76319 -87.63969 3437 ft 236 kts 166°
2026-04-26 21:14 41.74670 -87.63739 3984 ft 241 kts 174°
2026-04-26 21:14 41.72940 -87.63584 4363 ft 257 kts 173°
2026-04-26 21:15 41.71142 -87.63326 5088 ft 261 kts 171°
2026-04-26 21:15 41.69338 -87.63002 5924 ft 262 kts 170°
2026-04-26 21:15 41.67520 -87.62643 6727 ft 266 kts 170°
2026-04-26 21:15 41.65680 -87.62262 7490 ft 270 kts 170°
2026-04-26 21:16 41.63811 -87.61865 8260 ft 274 kts 170°
2026-04-26 21:16 41.61914 -87.61456 9088 ft 278 kts 170°
2026-04-26 21:16 41.59994 -87.61039 9948 ft 281 kts 171°
2026-04-26 21:16 41.58034 -87.60610 10552 ft 294 kts 171°
2026-04-26 21:17 41.55919 -87.60148 10717 ft 321 kts 171°
2026-04-26 21:17 41.53664 -87.59655 11247 ft 333 kts 171°
2026-04-26 21:17 41.51367 -87.59150 12044 ft 336 kts 171°
2026-04-26 21:17 41.49051 -87.58640 12889 ft 339 kts 171°
2026-04-26 21:18 41.46715 -87.58126 13732 ft 342 kts 172°
2026-04-26 21:18 41.44358 -87.57609 14541 ft 345 kts 172°
2026-04-26 21:18 41.41977 -87.57090 15317 ft 349 kts 172°
2026-04-26 21:18 41.39551 -87.56629 16089 ft 353 kts 173°
2026-04-26 21:19 41.37098 -87.56210 16863 ft 358 kts 174°
2026-04-26 21:19 41.34647 -87.55801 17622 ft 362 kts 174°
2026-04-26 21:19 41.32131 -87.55376 18378 ft 367 kts 174°
2026-04-26 21:19 41.29584 -87.54939 19028 ft 371 kts 174°
2026-04-26 21:20 41.27003 -87.54490 19650 ft 377 kts 174°
2026-04-26 21:20 41.24353 -87.54027 20287 ft 382 kts 174°
2026-04-26 21:20 41.21742 -87.53571 20885 ft 386 kts 174°
2026-04-26 21:20 41.19062 -87.53065 21493 ft 391 kts 172°
2026-04-26 21:21 41.16364 -87.52411 22091 ft 397 kts 171°
2026-04-26 21:21 41.13644 -87.51667 22676 ft 402 kts 170°
2026-04-26 21:21 41.10893 -87.50891 23249 ft 406 kts 170°
2026-04-26 21:21 41.08110 -87.50107 23769 ft 412 kts 170°
2026-04-26 21:22 41.05286 -87.49324 24196 ft 417 kts 171°
2026-04-26 21:22 41.02431 -87.48544 24673 ft 421 kts 171°
2026-04-26 21:22 40.99547 -87.47766 25158 ft 424 kts 171°
2026-04-26 21:23 40.93699 -87.46201 26031 ft 433 kts 171°
2026-04-26 21:23 40.90731 -87.45411 26461 ft 437 kts 171°
2026-04-26 21:23 40.87735 -87.44613 26878 ft 441 kts 171°
2026-04-26 21:23 40.84709 -87.43808 27262 ft 446 kts 171°
2026-04-26 21:24 40.81646 -87.42994 27637 ft 451 kts 171°
2026-04-26 21:24 40.78561 -87.42175 28054 ft 454 kts 171°
2026-04-26 21:24 40.75450 -87.41348 28488 ft 457 kts 171°
2026-04-26 21:24 40.72319 -87.40517 28877 ft 461 kts 171°
2026-04-26 21:25 40.69161 -87.39680 29243 ft 465 kts 171°
2026-04-26 21:25 40.65977 -87.38837 29615 ft 468 kts 171°
2026-04-26 21:25 40.62773 -87.37989 29986 ft 472 kts 171°
2026-04-26 21:25 40.59544 -87.37136 30313 ft 475 kts 171°
2026-04-26 21:26 40.56293 -87.36277 30603 ft 478 kts 171°
2026-04-26 21:26 40.53020 -87.35413 30898 ft 481 kts 171°
2026-04-26 21:26 40.49736 -87.34547 31225 ft 483 kts 171°
2026-04-26 21:26 40.46445 -87.33680 31635 ft 482 kts 171°
2026-04-26 21:27 40.43185 -87.32647 32057 ft 483 kts 163°
2026-04-26 21:27 40.40057 -87.31051 32639 ft 479 kts 158°
2026-04-26 21:27 40.37025 -87.29281 33207 ft 476 kts 158°
2026-04-26 21:27 40.33960 -87.27596 33458 ft 479 kts 161°
2026-04-26 21:28 40.30796 -87.26160 33642 ft 483 kts 164°
2026-04-26 21:28 40.27591 -87.24857 34015 ft 482 kts 165°
2026-04-26 21:28 40.24392 -87.23547 34429 ft 480 kts 164°
2026-04-26 21:28 40.21223 -87.22183 34806 ft 479 kts 163°
2026-04-26 21:29 40.19139 -87.21248 35031 ft 479 kts 163°
2026-04-26 21:29 40.14905 -87.19292 35061 ft 486 kts 162°
2026-04-26 21:29 40.09623 -87.16814 35081 ft 484 kts 162°
2026-04-26 21:30 40.03327 -87.13883 35112 ft 478 kts 162°
2026-04-26 21:30 39.97107 -87.10791 35089 ft 481 kts 156°
2026-04-26 21:31 39.91296 -87.06443 35111 ft 483 kts 147°
2026-04-26 21:31 39.85812 -87.01360 35117 ft 484 kts 145°
2026-04-26 21:32 39.80280 -86.96339 35116 ft 485 kts 147°
2026-04-26 21:32 39.74644 -86.91509 35113 ft 485 kts 148°
2026-04-26 21:33 39.68962 -86.86770 35117 ft 485 kts 148°
2026-04-26 21:33 39.63329 -86.82092 35124 ft 483 kts 148°
2026-04-26 21:34 39.57668 -86.77385 35113 ft 483 kts 148°
2026-04-26 21:34 39.52027 -86.72692 35103 ft 481 kts 148°
2026-04-26 21:35 39.46396 -86.68016 35107 ft 480 kts 148°
2026-04-26 21:35 39.40768 -86.63352 35089 ft 480 kts 148°
2026-04-26 21:36 39.35137 -86.58695 35093 ft 480 kts 148°
2026-04-26 21:36 39.29501 -86.54045 35097 ft 481 kts 148°
2026-04-26 21:37 39.23857 -86.49395 35092 ft 481 kts 148°
2026-04-26 21:37 39.18209 -86.44751 35094 ft 482 kts 148°
2026-04-26 21:38 39.12553 -86.40110 35103 ft 482 kts 148°
2026-04-26 21:38 39.06893 -86.35474 35081 ft 483 kts 148°
2026-04-26 21:39 39.01225 -86.30840 35101 ft 483 kts 149°
2026-04-26 21:39 38.95544 -86.26205 35103 ft 483 kts 149°
2026-04-26 21:40 38.89861 -86.21578 35066 ft 484 kts 149°
2026-04-26 21:40 38.84171 -86.16954 35090 ft 484 kts 149°
2026-04-26 21:41 38.78472 -86.12332 35073 ft 485 kts 149°
2026-04-26 21:41 38.72771 -86.07716 35078 ft 485 kts 149°
2026-04-26 21:42 38.67064 -86.03104 35061 ft 485 kts 149°
2026-04-26 21:42 38.61357 -85.98500 35076 ft 485 kts 149°
2026-04-26 21:43 38.55687 -85.93935 35056 ft 485 kts 149°
2026-04-26 21:43 38.49979 -85.89348 35075 ft 485 kts 149°
2026-04-26 21:44 38.44268 -85.84769 35064 ft 485 kts 149°
2026-04-26 21:44 38.38556 -85.80197 35069 ft 485 kts 149°
2026-04-26 21:45 38.32842 -85.75632 35071 ft 485 kts 149°
2026-04-26 21:45 38.27123 -85.71071 35109 ft 485 kts 149°
2026-04-26 21:46 38.21398 -85.66513 35100 ft 486 kts 149°
2026-04-26 21:46 38.15663 -85.61956 35107 ft 486 kts 149°
2026-04-26 21:47 38.09935 -85.57412 35078 ft 486 kts 149°
2026-04-26 21:47 38.04250 -85.52762 35088 ft 486 kts 148°
2026-04-26 21:48 37.98603 -85.48042 35076 ft 486 kts 148°
2026-04-26 21:48 37.92950 -85.43331 35092 ft 487 kts 148°
2026-04-26 21:49 37.87280 -85.38639 35098 ft 487 kts 148°
2026-04-26 21:49 37.81600 -85.33956 35084 ft 487 kts 149°
2026-04-26 21:50 37.76885 -85.30077 35072 ft 487 kts 149°
2026-04-26 21:50 37.70240 -85.24620 35058 ft 488 kts 149°
2026-04-26 21:51 37.64548 -85.19955 35079 ft 488 kts 149°
2026-04-26 21:51 37.58855 -85.15295 35075 ft 488 kts 149°
2026-04-26 21:52 37.53131 -85.10621 35046 ft 492 kts 149°
2026-04-26 21:52 37.47386 -85.05937 35065 ft 493 kts 149°
2026-04-26 21:53 37.41636 -85.01260 35083 ft 492 kts 149°
2026-04-26 21:53 37.35886 -84.96589 35061 ft 492 kts 149°
2026-04-26 21:54 37.30177 -84.91959 35069 ft 491 kts 150°
2026-04-26 21:54 37.24432 -84.87309 35072 ft 491 kts 150°
2026-04-26 21:55 37.18670 -84.82656 35044 ft 494 kts 150°
2026-04-26 21:55 37.12893 -84.77999 35051 ft 494 kts 150°
2026-04-26 21:56 37.07119 -84.73351 35044 ft 494 kts 150°
2026-04-26 21:56 37.01327 -84.68699 35044 ft 495 kts 150°
2026-04-26 21:57 36.95517 -84.64042 35058 ft 497 kts 150°
2026-04-26 21:57 36.89694 -84.59382 35053 ft 497 kts 150°
2026-04-26 21:58 36.83859 -84.54720 35019 ft 500 kts 150°
2026-04-26 21:58 36.78001 -84.50047 35039 ft 499 kts 150°
2026-04-26 21:59 36.72141 -84.45383 35035 ft 499 kts 150°
2026-04-26 21:59 36.66276 -84.40723 35014 ft 500 kts 150°
2026-04-26 22:00 36.60410 -84.36072 34999 ft 500 kts 151°
2026-04-26 22:00 36.54532 -84.31418 35039 ft 502 kts 151°
2026-04-26 22:01 36.48605 -84.26738 35039 ft 505 kts 150°
2026-04-26 22:01 36.42666 -84.22054 35035 ft 506 kts 150°
2026-04-26 22:02 36.37726 -84.18163 35041 ft 505 kts 150°
2026-04-26 22:02 36.30794 -84.12713 35030 ft 505 kts 151°
2026-04-26 22:03 36.24860 -84.08059 35037 ft 505 kts 151°
2026-04-26 22:03 36.18917 -84.03407 35022 ft 506 kts 151°
2026-04-26 22:04 36.12962 -83.98754 34991 ft 506 kts 151°
2026-04-26 22:04 36.07003 -83.94105 34980 ft 507 kts 152°
2026-04-26 22:05 36.01037 -83.89458 35019 ft 507 kts 151°
2026-04-26 22:05 35.95053 -83.84810 35006 ft 508 kts 151°
2026-04-26 22:06 35.89066 -83.80165 35037 ft 509 kts 152°
2026-04-26 22:06 35.83098 -83.75487 35030 ft 509 kts 150°
2026-04-26 22:07 35.77201 -83.70774 35028 ft 508 kts 150°
2026-04-26 22:07 35.72239 -83.66804 35028 ft 508 kts 150°
2026-04-26 22:08 35.65347 -83.61320 35020 ft 507 kts 150°
2026-04-26 22:08 35.59415 -83.56621 34998 ft 507 kts 150°
2026-04-26 22:09 35.53495 -83.51940 35004 ft 507 kts 151°
2026-04-26 22:09 35.47559 -83.47258 34995 ft 508 kts 151°
2026-04-26 22:10 35.41608 -83.42571 35001 ft 508 kts 151°
2026-04-26 22:10 35.35643 -83.37880 34972 ft 510 kts 151°
2026-04-26 22:11 35.29667 -83.33187 34964 ft 511 kts 152°
2026-04-26 22:11 35.23687 -83.28499 34972 ft 511 kts 152°
2026-04-26 22:12 35.17698 -83.23814 34975 ft 512 kts 152°
2026-04-26 22:12 35.11693 -83.19126 34984 ft 513 kts 152°
2026-04-26 22:13 35.05679 -83.14438 34974 ft 513 kts 152°
2026-04-26 22:13 34.99671 -83.09761 34986 ft 511 kts 152°
2026-04-26 22:14 34.93669 -83.05098 34970 ft 512 kts 152°
2026-04-26 22:14 34.87672 -83.00448 34992 ft 511 kts 152°
2026-04-26 22:15 34.81668 -82.95802 35008 ft 511 kts 152°
2026-04-26 22:15 34.75670 -82.91168 34990 ft 511 kts 152°
2026-04-26 22:16 34.69675 -82.86543 35009 ft 510 kts 152°
2026-04-26 22:16 34.64697 -82.82709 35007 ft 510 kts 152°
2026-04-26 22:17 34.58699 -82.78098 34992 ft 510 kts 152°
2026-04-26 22:17 34.52693 -82.73488 34979 ft 511 kts 152°
2026-04-26 22:18 34.46686 -82.68885 34984 ft 510 kts 152°
2026-04-26 22:18 34.40680 -82.64290 34971 ft 511 kts 152°
2026-04-26 22:19 34.34678 -82.59708 34970 ft 511 kts 152°
2026-04-26 22:19 34.28664 -82.55123 34989 ft 510 kts 152°
2026-04-26 22:20 34.25656 -82.52834 34805 ft 513 kts 152°
2026-04-26 22:20 34.22633 -82.50534 34476 ft 512 kts 152°
2026-04-26 22:20 34.19632 -82.48252 34276 ft 509 kts 152°
2026-04-26 22:20 34.16626 -82.45968 34046 ft 512 kts 152°
2026-04-26 22:21 34.13606 -82.43678 33784 ft 513 kts 152°
2026-04-26 22:21 34.10582 -82.41388 33524 ft 514 kts 152°
2026-04-26 22:21 34.07547 -82.39090 33262 ft 515 kts 152°
2026-04-26 22:21 34.04518 -82.36798 33020 ft 514 kts 152°
2026-04-26 22:22 34.01490 -82.34508 32740 ft 513 kts 152°
2026-04-26 22:22 33.98473 -82.32227 32483 ft 511 kts 152°
2026-04-26 22:22 33.95466 -82.29956 32192 ft 509 kts 152°
2026-04-26 22:22 33.92472 -82.27697 31936 ft 507 kts 152°
2026-04-26 22:23 33.89486 -82.25446 31680 ft 505 kts 152°
2026-04-26 22:23 33.86513 -82.23207 31431 ft 504 kts 152°
2026-04-26 22:23 33.83546 -82.20975 31187 ft 502 kts 152°
2026-04-26 22:23 33.80586 -82.18750 30940 ft 501 kts 152°
2026-04-26 22:24 33.77673 -82.16563 30708 ft 500 kts 152°
2026-04-26 22:24 33.74721 -82.14348 30471 ft 500 kts 152°
2026-04-26 22:24 33.71772 -82.12137 30234 ft 500 kts 152°
2026-04-26 22:24 33.68822 -82.09928 29959 ft 499 kts 151°
2026-04-26 22:25 33.65880 -82.07725 29687 ft 499 kts 151°
2026-04-26 22:25 33.62937 -82.05523 29415 ft 497 kts 152°
2026-04-26 22:25 33.60004 -82.03330 29142 ft 496 kts 152°
2026-04-26 22:25 33.57083 -82.01148 28870 ft 494 kts 152°
2026-04-26 22:26 33.54178 -81.98979 28608 ft 491 kts 152°
2026-04-26 22:26 33.51285 -81.96821 28340 ft 488 kts 152°
2026-04-26 22:26 33.48410 -81.94678 28079 ft 485 kts 152°
2026-04-26 22:26 33.45554 -81.92552 27787 ft 482 kts 152°
2026-04-26 22:27 33.42715 -81.90440 27531 ft 479 kts 152°
2026-04-26 22:27 33.39891 -81.88341 27245 ft 476 kts 152°
2026-04-26 22:27 33.37088 -81.86260 26990 ft 473 kts 152°
2026-04-26 22:27 33.34300 -81.84191 26736 ft 470 kts 152°
2026-04-26 22:28 33.31529 -81.82136 26486 ft 467 kts 152°
2026-04-26 22:28 33.28777 -81.80097 26230 ft 464 kts 152°
2026-04-26 22:28 33.26038 -81.78069 25987 ft 462 kts 152°
2026-04-26 22:28 33.23309 -81.76050 25754 ft 460 kts 152°
2026-04-26 22:29 33.20600 -81.74047 25474 ft 455 kts 152°
2026-04-26 22:29 33.17914 -81.72062 24867 ft 453 kts 152°
2026-04-26 22:29 33.15246 -81.70091 24385 ft 448 kts 153°
2026-04-26 22:29 33.12605 -81.68142 23839 ft 445 kts 153°
2026-04-26 22:30 33.09978 -81.66205 23250 ft 442 kts 153°
2026-04-26 22:30 33.07371 -81.64285 22662 ft 438 kts 153°
2026-04-26 22:30 33.04789 -81.62386 22089 ft 435 kts 152°
2026-04-26 22:30 33.02225 -81.60502 21558 ft 431 kts 152°
2026-04-26 22:31 32.99679 -81.58632 20972 ft 429 kts 152°
2026-04-26 22:31 32.97155 -81.56779 20473 ft 424 kts 152°
2026-04-26 22:31 32.94653 -81.54942 19936 ft 421 kts 151°
2026-04-26 22:31 32.92173 -81.53123 19417 ft 417 kts 151°
2026-04-26 22:32 32.89713 -81.51319 18900 ft 414 kts 150°
2026-04-26 22:32 32.87266 -81.49528 18355 ft 412 kts 150°
2026-04-26 22:32 32.84832 -81.47745 17773 ft 409 kts 150°
2026-04-26 22:32 32.82418 -81.45978 17224 ft 405 kts 150°
2026-04-26 22:33 32.80033 -81.44233 16716 ft 401 kts 150°
2026-04-26 22:33 32.75351 -81.40810 15731 ft 392 kts 150°
2026-04-26 22:33 32.73040 -81.39123 15245 ft 388 kts 150°
2026-04-26 22:34 32.70753 -81.37455 14758 ft 384 kts 150°
2026-04-26 22:34 32.68482 -81.35800 14271 ft 381 kts 150°
2026-04-26 22:34 32.66232 -81.34161 13792 ft 378 kts 150°
2026-04-26 22:34 32.64022 -81.32552 13238 ft 376 kts 150°
2026-04-26 22:35 32.61776 -81.30917 12724 ft 372 kts 150°
2026-04-26 22:35 32.59580 -81.29319 12224 ft 369 kts 150°
2026-04-26 22:35 32.57404 -81.27737 11729 ft 365 kts 150°
2026-04-26 22:35 32.55256 -81.26176 11444 ft 356 kts 150°
2026-04-26 22:36 32.53220 -81.24696 11350 ft 342 kts 150°
2026-04-26 22:36 32.51223 -81.23246 11166 ft 332 kts 150°
2026-04-26 22:36 32.49282 -81.21855 11048 ft 320 kts 153°
2026-04-26 22:36 32.47234 -81.21101 10984 ft 302 kts 179°
2026-04-26 22:37 32.45159 -81.21060 11028 ft 295 kts 184°
2026-04-26 22:37 32.43199 -81.21512 10976 ft 279 kts 208°
2026-04-26 22:37 32.41723 -81.22843 10982 ft 262 kts 234°
2026-04-26 22:37 32.40739 -81.24632 11001 ft 263 kts 242°
2026-04-26 22:38 32.39806 -81.26558 10719 ft 276 kts 242°
2026-04-26 22:38 32.38851 -81.28572 10485 ft 285 kts 243°
2026-04-26 22:38 32.37875 -81.30632 10117 ft 288 kts 243°
2026-04-26 22:38 32.36896 -81.32689 9759 ft 286 kts 243°
2026-04-26 22:39 32.35923 -81.34730 9366 ft 284 kts 243°
2026-04-26 22:39 32.34952 -81.36763 8987 ft 283 kts 243°
2026-04-26 22:39 32.33989 -81.38774 8615 ft 277 kts 243°
2026-04-26 22:39 32.33092 -81.40749 8217 ft 269 kts 249°
2026-04-26 22:40 32.32552 -81.42826 7837 ft 261 kts 260°
2026-04-26 22:40 32.32238 -81.44908 7478 ft 254 kts 262°
2026-04-26 22:40 32.31961 -81.46951 7109 ft 250 kts 262°
2026-04-26 22:40 32.31696 -81.48962 6747 ft 245 kts 263°
2026-04-26 22:41 32.31436 -81.50940 6387 ft 242 kts 263°
2026-04-26 22:41 32.31180 -81.52889 6021 ft 238 kts 263°
2026-04-26 22:41 32.30929 -81.54818 5641 ft 236 kts 263°
2026-04-26 22:41 32.30682 -81.56724 5277 ft 234 kts 263°
2026-04-26 22:42 32.30441 -81.58610 5008 ft 227 kts 263°
2026-04-26 22:42 32.30211 -81.60408 5034 ft 219 kts 262°
2026-04-26 22:42 32.29737 -81.62102 4975 ft 220 kts 237°
2026-04-26 22:42 32.28565 -81.63262 5016 ft 227 kts 207°
2026-04-26 22:43 32.27088 -81.63972 5025 ft 231 kts 203°
2026-04-26 22:43 32.25579 -81.64632 5008 ft 231 kts 203°
2026-04-26 22:43 32.24048 -81.65213 4989 ft 233 kts 193°
2026-04-26 22:43 32.22426 -81.65120 4907 ft 239 kts 163°
2026-04-26 22:44 32.21035 -81.64069 4560 ft 244 kts 131°
2026-04-26 22:44 32.20095 -81.62439 4341 ft 237 kts 121°
2026-04-26 22:44 32.19264 -81.60767 4031 ft 235 kts 121°
2026-04-26 22:44 32.18420 -81.59126 3724 ft 233 kts 121°
2026-04-26 22:45 32.17576 -81.57505 3446 ft 231 kts 121°
2026-04-26 22:45 32.16731 -81.55902 3158 ft 230 kts 122°
2026-04-26 22:45 32.15879 -81.54301 2861 ft 231 kts 121°
2026-04-26 22:45 32.15017 -81.52705 2570 ft 229 kts 121°
2026-04-26 22:46 32.14176 -81.51164 2516 ft 219 kts 121°
2026-04-26 22:46 32.13355 -81.49643 2516 ft 220 kts 118°
2026-04-26 22:46 32.12891 -81.47967 2474 ft 210 kts 87°
2026-04-26 22:46 32.13030 -81.46321 2532 ft 196 kts 83°
2026-04-26 22:47 32.13072 -81.44720 2516 ft 195 kts 87°
2026-04-26 22:47 32.13066 -81.43125 2524 ft 195 kts 88°
2026-04-26 22:47 32.13066 -81.41541 2513 ft 191 kts 88°
2026-04-26 22:47 32.13058 -81.39972 2494 ft 193 kts 87°
2026-04-26 22:48 32.13043 -81.38380 2512 ft 196 kts 88°
2026-04-26 22:48 32.13026 -81.36772 2439 ft 197 kts 88°
2026-04-26 22:48 32.13008 -81.35146 2173 ft 196 kts 88°
2026-04-26 22:48 32.12991 -81.33560 1929 ft 193 kts 88°
2026-04-26 22:49 32.12974 -81.31992 1703 ft 190 kts 88°
2026-04-26 22:49 32.12959 -81.30434 1437 ft 187 kts 88°
2026-04-26 22:49 32.12943 -81.28976 1209 ft 170 kts 88°
2026-04-26 22:49 32.12930 -81.27630 969 ft 161 kts 88°
2026-04-26 22:50 32.12918 -81.26332 800 ft 157 kts 88°
2026-04-26 22:50 32.12905 -81.25035 578 ft 158 kts 88°
2026-04-26 22:50 32.12893 -81.23744 376 ft 159 kts 88°
2026-04-26 22:50 32.12881 -81.22440 162 ft 158 kts 90°
2026-04-26 22:51 32.12873 -81.21178 42 ft 144 kts 91°
2026-04-26 22:51 32.12863 -81.20454 40 ft 48 kts 91°
2026-04-26 22:51 32.12924 -81.20335 45 ft 0 kts
2026-04-26 22:52 32.12945 -81.20334 47 ft 12 kts
2026-04-26 22:52 32.13104 -81.20330 52 ft 30 kts
2026-04-26 22:52 32.13310 -81.20331 53 ft 29 kts 360°
2026-04-26 22:52 32.13445 -81.20389 53 ft 19 kts 279°
2026-04-26 22:53 32.13448 -81.20544 53 ft 19 kts 270°
2026-04-26 22:53 32.13448 -81.20694 53 ft 14 kts 270°
2026-04-26 22:53 32.13424 -81.20705 53 ft 6 kts 104°
2026-04-26 22:53 32.13448 -81.20638 53 ft 17 kts 90°
2026-04-26 22:54 32.13457 -81.20442 48 ft 20 kts 51°
2026-04-26 22:54 32.13638 -81.20422 53 ft 21 kts 345°
2026-04-26 22:54 32.13672 -81.20610 53 ft 34 kts 271°
2026-04-26 22:54 32.13663 -81.20846 51 ft 13 kts 225°
2026-04-26 22:55 32.13613 -81.20853 53 ft 0 kts 179°